Flag for Germany Weather past 2 weeks in Gera, Thuringia, Germany

Now
32 °F

Overcast.


Feels Like: 27 °F
Forecast: 33 / 37 °F
Wind: 5 mph from Southwest

Location: Gera-Leumnitz

Current Time: Jan 29, 2015 at 7:40:27 AM

Latest Report: Jan 29, 2015 at 7:00 AM


Visibility: 34 mi

Pressure: 29.41 "Hg

Humidity: 85%

Dew point: 28 °F

Location of GeraLocation

Historic Weather in Gera — Graph

°F

Gera temperature yesterday

Maximum temperature yesterday: 37 °F (at 8:00 PM)
Minimum temperature yesterday: 32 °F (at 3:00 AM)
Average temperature yesterday: 35 °F

Past Weeks' High & Low Weather Summary

 TemperatureHumidityPressure
High45 °F (Jan 16, 1:00 PM)100% (Jan 16, 9:00 PM)30.35 "Hg (Jan 16, 9:00 PM)
Low27 °F (Jan 21, 8:00 PM)63% (Jan 14, 3:00 PM)29.38 "Hg (Jan 28, 11:00 PM)
Average34 °F89%29.99 "Hg
* Reported Jan 14 6:00 AM — Jan 29 6:00 AM, Gera, Weather by CustomWeather, © 2014

Note: Actual official high and low records may vary slightly from our data, if they occured in-between our weather recording intervals... More about our weather records

Advertising

Gera weather history for previous 24 hours

 ConditionsComfort  
Time TempWeatherWind HumidityBarometerVisibility
6:00 AM
Jan 29
32 °FSnow flurries. Passing clouds.8 mph81%29.41 "Hg34 mi
5:00 AM33 °FOvercast.9 mph78%29.41 "Hg43 mi
4:00 AM33 °FClear.8 mph74%29.41 "Hg43 mi
3:00 AM34 °FClear.7 mph76%29.41 "Hg43 mi
2:00 AM34 °FPassing clouds.7 mph90%29.41 "Hg40 mi
1:00 AM36 °FPassing clouds.8 mph83%29.41 "Hg43 mi
12:00 AM36 °FOvercast.9 mph82%29.38 "Hg43 mi
11:00 PM
Jan 28
36 °FOvercast.12 mph82%29.38 "Hg43 mi
10:00 PM36 °FPassing clouds.13 mph84%29.41 "Hg25 mi
9:00 PM37 °FLight rain. Low clouds.13 mph80%29.47 "Hg10 mi
8:00 PM37 °FOvercast.12 mph75%29.47 "Hg37 mi
6:00 PM37 °FOvercast.12 mph80%29.60 "Hg22 mi
5:00 PM36 °FOvercast.13 mph81%29.66 "Hg16 mi
4:00 PM36 °FOvercast.10 mph82%29.72 "Hg14 mi
3:00 PM37 °FOvercast.9 mph80%29.77 "Hg14 mi
2:00 PM37 °FOvercast.10 mph80%29.82 "Hg19 mi
1:00 PM37 °FOvercast.9 mph80%29.87 "Hg19 mi
12:00 PM37 °FOvercast.9 mph81%29.93 "Hg16 mi
11:00 AM36 °FOvercast.8 mph85%29.96 "Hg16 mi
10:00 AM34 °FOvercast.6 mph87%30.00 "Hg17 mi
9:00 AM34 °FOvercast.6 mph87%30.02 "Hg16 mi
8:00 AM33 °FOvercast.5 mph92%30.04 "Hg16 mi
7:00 AM33 °FLow clouds.5 mph95%30.05 "Hg12 mi
Weather by CustomWeather, © 2014

See weather overviewHow to use our weather pages